This demonstration page uses our WeatherBlox Daily Observations layout. Learn more.

Left ArrowRight Arrow

Hourly Observations for September 17, 2019

Temp ( °F °C ) Dew Point ( °F °C ) Humidity (%) Winds ( mph kmh ) Pressure ( in mb ) Visibility ( mi km ) Precip ( " mm )
12:54 am 00:54 Mostly Cloudy 77 25 68 20 74 74 S 13 20 29.92 1013 10 16 0.00 0.00
1:54 am 01:54 Clear 77 25 68 20 74 74 S 13 20 29.92 1013 10 16 0.00 0.00
2:54 am 02:54 Clear 76 24.4 68 20 77 77 S 12 19 29.92 1013 10 16 0.00 0.00
3:54 am 03:54 Clear 75 23.9 67 19.4 76 76 S 10 17 29.91 1013 10 16 0.00 0.00
4:54 am 04:54 Clear 74 23.3 67 19.4 79 79 S 12 19 29.91 1013 10 16 0.00 0.00
5:54 am 05:54 Clear 74 23.3 67 19.4 79 79 S 12 19 29.92 1013 10 16 0.00 0.00
6:54 am 06:54 Clear 73 22.8 66 18.9 79 79 S 12 19 29.93 1014 10 16 0.00 0.00
7:54 am 07:54 Sunny 74 23.3 66 18.9 76 76 S 13 20 29.94 1014 9 14 0.00 0.00
8:54 am 08:54 Sunny 78 25.6 67 19.4 69 69 S 14 22 29.94 1014 10 16 0.00 0.00
9:54 am 09:54 Sunny 82 27.8 67 19.4 60 60 S 17 28 29.93 1014 10 16 0.00 0.00
10:54 am 10:54 Sunny 85 29.4 66 18.9 53 53 S 21 33 29.93 1013 10 16 0.00 0.00
11:54 am 11:54 Sunny 89 31.7 66 18.9 47 47 S 25 41 29.90 1013 10 16 0.00 0.00
12:54 pm 12:54 Sunny 91 32.8 66 18.9 44 44 S 23 37 29.89 1012 10 16 0.00 0.00
1:54 pm 13:54 Sunny 92 33.3 66 18.9 43 43 S 23 37 29.87 1012 10 16 0.00 0.00
2:54 pm 14:54 Sunny 93 33.9 63 17.2 37 37 S 28 44 29.85 1011 10 16 0.00 0.00
3:54 pm 15:54 Sunny 93 33.9 63 17.2 37 37 S 25 41 29.83 1010 10 16 0.00 0.00
4:54 pm 16:54 Sunny 92 33.3 64 17.8 40 40 S 29 46 29.81 1010 10 16 0.00 0.00
5:54 pm 17:54 Sunny 89 31.7 64 17.8 43 43 S 25 41 29.81 1010 10 16 0.00 0.00
6:54 pm 18:54 Sunny 86 30 65 18.3 49 49 S 20 31 29.82 1010 10 16 0.00 0.00
7:54 pm 19:54 Clear 83 28.3 66 18.9 57 57 SSE 16 26 29.83 1010 10 16 0.00 0.00
8:54 pm 20:54 Clear 81 27.2 67 19.4 62 62 SSE 13 20 29.84 1011 10 16 0.00 0.00
9:54 pm 21:54 Clear 80 26.7 67 19.4 64 64 SSE 16 26 29.84 1011 10 16 0.00 0.00
10:54 pm 22:54 Clear 79 26.1 66 18.9 65 65 S 16 26 29.84 1011 10 16 0.00 0.00
11:54 pm 23:54 Clear 80 26.7 65 18.3 60 60 S 21 33 29.84 1011 10 16 0.00 0.00

Powered by AerisWeather